WESTFORD NEEDLES, 2530

Orbit data source: Space-Track

WESTFORD NEEDLES, 2530 is space debris in LEO originally from a launch on Thu, 09 May 1963 UTC launched from the Air Force Western Test Range (AFWTR). Debris objects in space refer to the collection of defunct objects orbiting the Earth. Examples of debris include non-operational satellites, rocket bodies, and fragments generated from explosions, collisions, or faulty payload assembly.

Loading next visibility...
Identifier
2530, 1963-014AJ
Orbit
LEO
Country
Flag of USUS
Related business
Manufacturer
Unknown
Mission
Spacecraft
Bus & Motor
Unknown
Mass
Unknown
Launch date (UTC)
1963-05-09 (63 years ago)
Launch vehicle
Unknown
Launch site
Air Force Western Test Range (AFWTR)
Object type
Payload
Rocket body
Debris
Shape & HBR
Unknown shape, 1.1 m
Radar Cross Section
Medium (>0.1 m² and <1 m²)

Expand to show TLE details & history
Last TLE update: 3 months ago

TLE from 3 months ago
0 WESTFORD NEEDLES
1 02530U 63014AJ  25314.61908977 -.00000088  00000-0 -37503-1 0  9993
2 02530  87.6484 173.5429 0460772  22.0293   0.7555  8.68200725920634
Epoch: 2025-11-10T14:51Z
TLE epoch observation values (Epoch: 2025-11-10T14:51:29.356Z)
Latitude
22.85162°
Longitude
-98.35931°
Altitude
3,163.008 km
Speed
6.613 km/s
True Right ascension
11h 38m 07s
True Declination
22° 45' 35"
Sunlit
Object was in daylight at epoch
Visualization orbit readout
Latitude
Unknown
Longitude
Unknown
Altitude
Unknown
Speed
Unknown
Apparent Right ascension
Unknown
Apparent Declination
Unknown
Sunlit
N/A
Visualization observer readout
Local Sidereal Time
14:04:28
Azimuth
Unknown
Elevation
Unknown
Doppler factor
Unknown
Orbital elements
Apogee altitude
4,080.063 km
Perigee altitude
3,158.746 km
Semi-major axis
9,997.542 km
Eccentricity
0.04608
Inclination
87.6484°
RAAN
173.5429°
Arg. of periapsis
22.0293°
True anomaly
0.82936°
Mean anomaly
0.7555°
Eccentric anomaly
0.79199°
Mean motion
2.17122 °/min
Orbital period
165.81 mins
BSTAR
-0.037503
Loading maneuver chart data...
Computing Atmospheric mass density...

Documentation

Showing up to 5 results
|